Change the Weather History Date:

Monday, November 25, 2013

  Actual Average Record
Temperature  
Mean Temperature 51 °F 46 °F  
Max Temperature 61 °F 52 °F 76 °F (1995)
Min Temperature 41 °F 40 °F 24 °F (1973)
Degree Days  
Heating Degree Days 14 19  
Month to date heating degree days 267 377  
Since 1 July heating degree days 484 678  
Cooling Degree Days 0 0  
Month to date cooling degree days 4 0  
Year to date cooling degree days 1565 996  
Growing Degree Days 1 (Base 50)    
Moisture  
Dew Point 28 °F    
Average Humidity 45    
Maximum Humidity 65    
Minimum Humidity 25    
Precipitation  
Precipitation 0.00 in 0.04 in 1.66 in (1961)
Month to date precipitation 0.39 0.61  
Year to date precipitation 3.61 9.91  
Since 1 July precipitation 0.70 1.43  
Sea Level Pressure  
Sea Level Pressure 30.22 in    
Wind  
Wind Speed 7 mph (NNE)    
Max Wind Speed 14 mph    
Max Gust Speed 18 mph    
Visibility 10 miles    
Events      
T = Trace of Precipitation, MM = Missing Value Source: NWS Daily Summary

Daily Weather History Graph

Daily Weather History Graph

Search for Another Location

Airport or City:

Trip Planner

Search our weather history database for the weather conditions in past years. The results will help you decide how hot, cold, wet, or windy it might be!

Date:

Astronomy

Nov. 25, 2013 Rise Set
Actual Time 6:38 AM PST 4:45 PM PST
Civil Twilight 6:11 AM PST 5:12 PM PST
Nautical Twilight 5:40 AM PST 5:43 PM PST
Astronomical Twilight 5:10 AM PST 6:13 PM PST
Moon No Moon Rise 12:07 PM PST (11/25)
Length of Visible Light 11h 01m
Length of Day
10h 06m
Waning Gibbous, 50% of the Moon is Illuminated
Nov 25
Waning Gibbous
Dec 2
New
Dec 9
First Quarter
Dec 17
Full
Dec 25
Last Quarter

Hourly Weather History & Observations

Time (PST) Temp. Windchill Dew Point Humidity Pressure Visibility Wind Dir Wind Speed Gust Speed Precip Events Conditions
12:48 AM 42.1 °F 36.1 °F 28.9 °F 60% 30.19 in 10.0 mi NNW 10.4 mph - N/A   Clear
1:48 AM 42.1 °F 37.7 °F 28.9 °F 60% 30.19 in 10.0 mi North 6.9 mph - N/A   Clear
2:48 AM 43.0 °F 37.7 °F 27.0 °F 53% 30.19 in 10.0 mi North 9.2 mph - N/A   Clear
3:48 AM 43.0 °F 38.2 °F 27.0 °F 53% 30.20 in 10.0 mi NNW 8.1 mph - N/A   Clear
4:48 AM 42.1 °F 35.7 °F 28.0 °F 58% 30.21 in 10.0 mi North 11.5 mph - N/A   Clear
5:48 AM 41.0 °F - 28.0 °F 60% 30.22 in 10.0 mi Calm Calm - N/A   Clear
6:48 AM 41.0 °F 37.1 °F 28.9 °F 62% 30.23 in 10.0 mi NNE 5.8 mph - N/A   Clear
7:48 AM 45.0 °F 41.2 °F 28.9 °F 53% 30.25 in 10.0 mi NNE 6.9 mph - N/A   Clear
8:48 AM 50.0 °F - 30.0 °F 46% 30.25 in 10.0 mi NE 10.4 mph - N/A   Clear
9:48 AM 53.1 °F - 30.9 °F 43% 30.26 in 10.0 mi NE 5.8 mph - N/A   Clear
10:48 AM 57.0 °F - 30.0 °F 36% 30.26 in 10.0 mi ENE 4.6 mph - N/A   Clear
11:48 AM 59.0 °F - 28.0 °F 31% 30.24 in 10.0 mi ENE 6.9 mph - N/A   Clear
12:48 PM 61.0 °F - 28.9 °F 30% 30.20 in 10.0 mi NE 6.9 mph - N/A   Clear
1:48 PM 60.1 °F - 25.0 °F 26% 30.20 in 10.0 mi ENE 6.9 mph - N/A   Clear
2:48 PM 60.1 °F - 27.0 °F 28% 30.19 in 10.0 mi NE 6.9 mph - N/A   Clear
3:48 PM 55.9 °F - 30.9 °F 39% 30.20 in 10.0 mi North 9.2 mph - N/A   Clear
4:48 PM 51.1 °F - 27.0 °F 39% 30.22 in 10.0 mi North 4.6 mph - N/A   Clear
5:48 PM 48.9 °F - 27.0 °F 43% 30.24 in 10.0 mi North 4.6 mph - N/A   Clear
6:48 PM 48.0 °F - 28.0 °F 46% 30.25 in 10.0 mi NNE 6.9 mph - N/A   Clear
7:48 PM 48.9 °F - 28.0 °F 44% 30.25 in 10.0 mi NE 4.6 mph - N/A   Clear
8:48 PM 48.0 °F - 27.0 °F 44% 30.24 in 10.0 mi NNE 4.6 mph - N/A   Clear
9:48 PM 48.0 °F - 28.0 °F 46% 30.23 in 10.0 mi NE 11.5 mph - N/A   Clear
10:48 PM 48.9 °F - 28.9 °F 46% 30.22 in 10.0 mi NE 8.1 mph - N/A   Clear
11:48 PM 48.9 °F - 28.9 °F 46% 30.22 in 10.0 mi ENE 10.4 mph - N/A   Clear